Location: Unspecified
(0.0000°N, 0.0000°E)
Time: 22:17:02
(UTC+00:00)

A-11 Canister half - Pass Details

Date: 30 September 2023
Orbit: 1524 x 1684 km, 47.3° (Epoch: 02 October)

Event Time Altitude Azimuth Distance (km) Brightness Sun altitude
Rises 09:47:16 0° 220° (SW) 4,751 11.4 59.2°
Reaches altitude 10° 09:50:22 10° 220° (SW) 3,747 11.0 59.9°
Maximum altitude 09:59:50 89° 307° (NW) 1,534 10.4 62.3°
Drops below altitude 10° 10:09:07 10° 39° (NE) 3,679 11.3 64.6°
Sets 10:12:08 0° 39° (NE) 4,661 11.7 65.4°
